Regional Weather Roundup
Issued by NWS

Home | Current Version | Previous Version | Text Only | Print | Product List | Glossary On
Versions: 1 2 3 4 5 6 7 8 9 10 11 12 13 14 15 16 17 18 19 20 21 22 23 24 25 26 27 28 29 30 31 32 33 34 35 36 37 38 39 40 41 42 43 44 45 46 47 48 49 50
000
ASUS44 KJAN 010410
RWRMS

MISSISSIPPI HOURLY WEATHER ROUNDUP
NATIONAL WEATHER SERVICE JACKSON MS
1100 PM CDT MON AUG 31 2015

NOTE: "FAIR: INDICATES FEW OR NO CLOUDS BELOW 12,000 FEET WITH NO
SIGNIFICANT WEATHER AND/OR OBSTRUCTIONS TO VISIBILITY.

MSZ001>002-007>008-010>013-018>021-025>028-034>036-010500-
NORTHWEST MISSISSIPPI

CITY           SKY/WX    TMP DP  RH WIND       PRES   REMARKS
CLARKSDALE       N/A     75  73  94 E6        30.06R
CLEVELAND      FAIR      80  71  74 E6        30.04R
GREENWOOD      CLEAR     79  67  66 E10       30.04R
GREENVILLE     CLEAR     79  68  69 E8        30.02R
OLIVE BRANCH   CLEAR     73  73 100 E5        30.08S
OXFORD         FAIR      73  66  78 SE6       30.09S
TUNICA         PTCLDY    75  70  83 E5        30.06S
$$

MSZ003>006-009-014>017-022>024-029>033-037>039-010500-
NORTHEAST MISSISSIPPI

CITY           SKY/WX    TMP DP  RH WIND       PRES   REMARKS
COLUMBUS AFB   CLEAR     71  69  94 E2        30.06F
CORINTH        FAIR      70  68  94 CALM      30.08S FOG
GOLDN TRIANGLE CLEAR     73  66  78 E3        30.07S
STARKVILLE     FAIR      70  68  94 CALM      30.07S
TUPELO         CLEAR     74  69  85 CALM      30.08S
$$

MSZ040-058-010500-
CENTRAL MISSISSIPPI

CITY           SKY/WX    TMP DP  RH WIND       PRES   REMARKS
JACKSON INTL   MOCLDY    81  66  60 CALM      30.04R
JACKSON HAWKNS PTCLDY    81  67  62 CALM      30.04S
MERIDIAN KEY   CLEAR     77  69  76 NE5       30.06S
MERIDIAN NAS   CLEAR     74  69  85 CALM      30.07S
VICKSBURG      PTCLDY    71  68  90 CALM      30.03R
$$

MSZ059>079-010500-
SOUTH MISSISSIPPI

CITY           SKY/WX    TMP DP  RH WIND       PRES   REMARKS
BROOKHAVEN     FAIR      73  68  83 CALM      30.07R
HATTIESBURG    PTCLDY    79  68  69 E5        30.06R
MCCOMB         CLEAR     75  72  90 CALM      30.06R
NATCHEZ        PTCLDY    73  70  88 CALM      30.05S
PINE BELT      CLEAR     79  66  65 S5        30.07R
$$

MSZ080>082-010500-
COASTAL MISSISSIPPI

CITY           SKY/WX    TMP DP  RH WIND       PRES   REMARKS
BILOXI         CLEAR     80  71  75 S7        30.04F
PASCAGOULA     CLEAR     71  70  96 CALM      30.05S
GULFPORT       CLEAR     76  70  82 S3        30.04S
$$


USA.gov is the U.S. government's official web portal to all federal, state and local government web resources and services.